[[{"header":{"parameterUnit":"m.s-1","parameterCategory":1,"la1":30.2991,"la2":30.254,"lo1":-89.0895,"lo2":-89.0444,"dy":0.0017,"dx":0.0017,"nx":28,"ny":28,"refTime":"2025-08-29T21:00:00:Z","depth":0,"parameterNumber":2,"parameterNumberName":"U-component_of_WINDS"},"data":[0,0,0,0,0,0,0,0,0,0,0,0,0,0,0,0,0,0,0,0,0,0,0,0,0,0,0,0,0,0,0,0,0,0,0,0,0,0,0,0,0,0,0,0,0,0,0,0,0,0,0,0,0,0,0,0,0,0,0.0097,0.0098,0,0.0224,0.0226,0.0227,0.0251,0.025,0.0249,0.0248,0.0384,0.0388,0.0393,0,0,0,0,0,0,0,0,0,0,0,0,0,-0.0121,-0.0117,0.0097,0.0099,0.01,0.0224,0.0226,0.0228,0.0251,0.025,0.0249,0.0248,0.0382,0.0388,0.0393,0,0,0,0,0,0,0,0,0,0,0,0,0,-0.0013,-0.0116,0.0097,0.0127,0.0131,0.0224,0.0226,0.0228,0.0252,0.025,0.0248,0.0247,0.0381,0.0387,0.0394,0.0468,0,0,0.0415,0.0418,0,0,0,0,0,0,0,0,-0.0019,-0.0005,0.0121,0.0125,0.0129,0.022,0.0199,0.0309,0.0252,0.0206,0.0248,0.0246,0.0331,0.0342,0.0369,0.0474,0.048,0.0416,0.042,0.0423,0.0425,0,0,0,0,0,0,0,-0.0027,-0.001,0.0148,0.0123,0.0128,0.0136,0.0149,0.022,0.0276,0.021,0.0212,0.0226,0.0333,0.0363,0.0373,0.0482,0.0416,0.0422,0.0426,0.0429,0.0656,0.0658,0,0,0,0,0,0,-0.004,-0.0017,0.0144,0.0151,0.005,0.0141,0.0156,0.0193,0.0275,0.0286,0.0227,0.0227,0.0352,0.0365,0.0378,0.0471,0.0423,0.0429,0.0433,0.0654,0.0656,0.0658,0,0,0,0,0,0,-0.0045,-0.0026,0.0138,0.0068,0.0089,0.0146,0.0187,0.0196,0.0226,0.0288,0.0299,0.0247,0.0351,0.0368,0.0445,0.0476,0.0432,0.0439,0.0652,0.0655,0.0657,0.0657,0,0,0,0,0,0,-0.0051,-0.0028,-0.0001,0.0068,0.0093,0.0202,0.0189,0.02,0.0237,0.0237,0.031,0.032,0.0351,0.0435,0.0452,0.0484,0.0444,0.0649,0.0653,0.0656,0.0654,0.0659,0.0663,0,0,0,0,0,-0.0059,-0.0005,0.0001,0.002,0.0128,0.0204,0.0218,0.0251,0.0239,0.0268,0.0309,0.0318,0.0469,0.0443,0.0462,0.0497,0.0647,0.0652,0.0656,0.0652,0.0658,0.0663,0,0,0,0,0,0,-0.0069,0.0005,0.0012,0.009,0.014,0.0208,0.0245,0.0256,0.0313,0.0311,0.0351,0.0367,0.0443,0.0478,0.0447,0.0574,0.0558,0.0566,0.0548,0.0554,0.0559,0.055,0.045,0,0,0,0,0,-0.0063,-0.001,0.0053,0.0116,0.0141,0.0188,0.0223,0.0243,0.0298,0.032,0.0366,0.042,0.048,0.0519,0.0578,0.0659,0.0676,0.0693,0.0697,0.07,0.0708,0.0755,0.0763,0.0672,0.0672,0.0672,0,0,-0.0048,-0.0001,0.003,0.0115,0.0157,0.0213,0.0206,0.0266,0.0309,0.033,0.0406,0.0441,0.0504,0.0584,0.0622,0.0616,0.0737,0.0706,0.0708,0.0714,0.076,0.0769,0.0776,0.0675,0.0675,0.0674,0,0,0.0007,0.0047,0.0105,0.0146,0.0208,0.024,0.0253,0.0319,0.0343,0.0419,0.0436,0.0488,0.059,0.0635,0.0671,0.0743,0.0754,0.0761,0.0785,0.083,0.0838,0.0844,0.0871,0.088,0.0768,0.0768,0.0768,0,0.0018,0.0102,0.0133,0.0192,0.0229,0.0249,0.0308,0.0347,0.0426,0.0452,0.0444,0.0572,0.0616,0.0707,0.0724,0.0753,0.0771,0.0753,0.0834,0.0841,0.0847,0.0874,0.0883,0.0768,0.0768,0.0768,0.0768,0,0.0113,0.0171,0.021,0.0283,0.0325,0.0384,0.0426,0.0465,0.0481,0.0514,0.0592,0.0645,0.0715,0.0738,0.0756,0.0832,0.0826,0.0825,0.081,0.0856,0.0881,0.0892,0.0769,0.0769,0.0768,0.0768,0,0,0.0167,0.0256,0.027,0.0304,0.0374,0.0421,0.0481,0.0547,0.058,0.0634,0.0687,0.0772,0.0771,0.0812,0.0835,0.0875,0.093,0.0869,0.0871,0.0879,0.1019,0.102,0.1031,0.0937,0.0939,0.094,0.1014,0,0.0232,0.0338,0.0368,0.0459,0.0513,0.0532,0.0585,0.0634,0.0666,0.0719,0.0755,0.0815,0.0809,0.0834,0.0874,0.0914,0.0958,0.0909,0.0988,0.0991,0.0973,0.1044,0.1046,0.1112,0.1024,0.1025,0.1027,0,0.0323,0.0376,0.0472,0.0534,0.0559,0.0605,0.0669,0.0718,0.0775,0.0796,0.0841,0.086,0.0925,0.0905,0.0997,0.0963,0.0997,0.1022,0.1025,0.1035,0.1012,0.1057,0.1134,0.1145,0.1042,0.1041,0.104,0,0.0354,0.045,0.052,0.0548,0.0623,0.0655,0.0689,0.0744,0.0782,0.0838,0.0863,0.0927,0.0962,0.1012,0.1048,0.103,0.1137,0.112,0.1158,0.1157,0.1181,0.118,0.1266,0.12,0.12,0.12,0.12,0,0.0425,0.0483,0.0535,0.0578,0.0644,0.0678,0.0743,0.0777,0.0826,0.0877,0.0898,0.0946,0.0991,0.1045,0.1074,0.1147,0.1162,0.1182,0.119,0.1181,0.1179,0.1205,0.1202,0.1203,0.1202,0.1202,0.1201,0,0.0473,0.0509,0.0587,0.065,0.0668,0.0714,0.0769,0.0813,0.0845,0.0909,0.0927,0.0978,0.1043,0.1084,0.1168,0.1187,0.1267,0.1272,0.1247,0.1251,0.1287,0.1284,0.1395,0.1412,0.1333,0.1334,0.1335,0,0.0516,0.0561,0.0628,0.0663,0.0696,0.0752,0.0791,0.0826,0.0866,0.0934,0.0969,0.1035,0.109,0.1194,0.124,0.1304,0.1312,0.1346,0.1322,0.1312,0.1314,0.1312,0.1317,0.1351,0.1352,0.1352,0.1353,0,0.059,0.0605,0.0659,0.0719,0.0764,0.0814,0.0864,0.0891,0.0936,0.0979,0.1045,0.1087,0.1172,0.1238,0.1306,0.1342,0.1356,0.136,0.1372,0.1365,0.1349,0.136,0.126,0.1357,0.1357,0.1357,0.1356,0.1356,0.0638,0.0678,0.0732,0.0792,0.0832,0.0878,0.0922,0.0959,0.1014,0.1084,0.1101,0.1171,0.1228,0.132,0.1357,0.1413,0.1409,0.1427,0.1431,0.1436,0.1437,0.1338,0.1426,0.1426,0.1426,0.1426,0.1426,0,0.0714,0.0749,0.0803,0.0871,0.0918,0.0923,0.0979,0.1018,0.1078,0.1129,0.1182,0.1258,0.1322,0.1372,0.1439,0.1474,0.1482,0.149,0.1489,0.1497,0.1436,0.142,0.1483,0.1483,0.1483,0.1483,0.1483,0.1483,0.0759,0.0828,0.085,0.0941,0.0976,0.1043,0.1074,0.1117,0.1157,0.1241,0.1293,0.1325,0.1376,0.1446,0.1505,0.1519,0.1543,0.155,0.1565,0.1508,0.1502,0.1496,0.148,0.1555,0.1555,0.1622,0.1622,0.1623]},{"header":{"parameterUnit":"m.s-1","parameterCategory":1,"la1":30.2991,"la2":30.254,"lo1":-89.0895,"lo2":-89.0444,"dy":0.0017,"dx":0.0017,"nx":28,"ny":28,"refTime":"2025-08-29T21:00:00:Z","depth":0,"parameterNumber":3,"parameterNumberName":"V-component_of_WINDS"},"data":[0,0,0,0,0,0,0,0,0,0,0,0,0,0,0,0,0,0,0,0,0,0,0,0,0,0,0,0,0,0,0,0,0,0,0,0,0,0,0,0,0,0,0,0,0,0,0,0,0,0,0,0,0,0,0,0,0,0,-1.0093,-1.0091,0,-0.9982,-0.9981,-0.998,-0.9937,-0.9938,-0.9938,-0.9938,-0.9826,-0.9823,-0.982,0,0,0,0,0,0,0,0,0,0,0,0,0,-1.0267,-1.0264,-1.0093,-1.0091,-1.009,-0.9982,-0.9981,-0.9979,-0.9937,-0.9938,-0.9938,-0.9938,-0.9827,-0.9823,-0.9819,0,0,0,0,0,0,0,0,0,0,0,0,0,-1.0178,-1.0264,-1.0093,-1.0056,-1.0052,-0.9983,-0.9981,-0.9979,-0.9937,-0.9938,-0.9938,-0.9939,-0.9828,-0.9824,-0.9819,-0.9779,0,0,-0.9804,-0.9802,0,0,0,0,0,0,0,0,-1.0183,-1.0171,-1.0063,-1.0058,-1.0053,-0.9974,-1.0001,-0.9912,-0.9937,-0.9981,-0.9938,-0.9939,-0.9875,-0.9866,-0.9844,-0.9773,-0.9769,-0.9803,-0.98,-0.9798,-0.9797,0,0,0,0,0,0,0,-1.0189,-1.0176,-1.0049,-1.0061,-1.0055,-1.0045,-1.0033,-0.9984,-0.9927,-0.9977,-0.9974,-0.9961,-0.9872,-0.9849,-0.9842,-0.9767,-0.9803,-0.9799,-0.9796,-0.9794,-0.9657,-0.9657,0,0,0,0,0,0,-1.0202,-1.0181,-1.0053,-1.0046,-1.0121,-1.0042,-1.0028,-0.9999,-0.9927,-0.9916,-0.9961,-0.9959,-0.9857,-0.9847,-0.9837,-0.9785,-0.9798,-0.9794,-0.9791,-0.9658,-0.9657,-0.9656,0,0,0,0,0,0,-1.0205,-1.019,-1.0057,-1.0113,-1.0095,-1.0038,-1.0006,-0.9997,-0.9973,-0.9915,-0.9904,-0.9948,-0.9857,-0.9844,-0.9793,-0.9781,-0.9791,-0.9787,-0.9659,-0.9658,-0.9657,-0.9681,0,0,0,0,0,0,-1.0211,-1.0192,-1.0176,-1.0113,-1.0092,-1.0015,-1.0005,-0.9994,-0.9965,-0.9962,-0.99,-0.989,-0.9857,-0.9801,-0.9789,-0.9774,-0.9783,-0.966,-0.9658,-0.9657,-0.9681,-0.9681,-0.9681,0,0,0,0,0,-1.0217,-1.0188,-1.0176,-1.016,-1.0071,-1.0014,-1.0002,-0.9965,-0.9964,-0.9948,-0.991,-0.9892,-0.9784,-0.9796,-0.9782,-0.9766,-0.966,-0.9659,-0.9657,-0.9681,-0.9681,-0.9681,0,0,0,0,0,0,-1.0251,-1.0179,-1.0164,-1.0114,-1.007,-1.0007,-0.9985,-0.9966,-0.9922,-0.9921,-0.9877,-0.9863,-0.9816,-0.9786,-0.98,-0.9723,-0.9721,-0.9717,-0.9744,-0.9744,-0.9744,-0.9751,-0.9779,0,0,0,0,0,-1.0253,-1.0213,-1.0152,-1.0113,-1.0092,-1.0042,-1.0016,-0.9991,-0.9944,-0.9926,-0.9885,-0.984,-0.9796,-0.9769,-0.9725,-0.9677,-0.9662,-0.9659,-0.9659,-0.9659,-0.9655,-0.9627,-0.9625,-0.9651,-0.9651,-0.9651,0,0,-1.0256,-1.0211,-1.0189,-1.0118,-1.0082,-1.0041,-1.0027,-0.9985,-0.9954,-0.992,-0.9869,-0.9837,-0.9785,-0.9735,-0.9711,-0.9708,-0.9645,-0.9657,-0.9658,-0.9654,-0.9625,-0.9623,-0.9621,-0.965,-0.9651,-0.9651,0,0,-1.024,-1.0203,-1.0166,-1.013,-1.0074,-1.0042,-1.0033,-0.9973,-0.995,-0.9898,-0.9871,-0.9835,-0.976,-0.9724,-0.9696,-0.9667,-0.9648,-0.9654,-0.9653,-0.9626,-0.9624,-0.9622,-0.9611,-0.9608,-0.9651,-0.9651,-0.9651,0,-1.0251,-1.0188,-1.0149,-1.0108,-1.0078,-1.0045,-1.0007,-0.9974,-0.9908,-0.9887,-0.9886,-0.9791,-0.9754,-0.9695,-0.9688,-0.9666,-0.9655,-0.966,-0.9628,-0.9625,-0.9622,-0.9611,-0.9607,-0.9652,-0.9652,-0.9652,-0.9652,0,-1.0203,-1.0161,-1.0137,-1.0074,-1.0041,-1.0002,-0.9957,-0.9929,-0.9907,-0.9875,-0.9822,-0.9776,-0.9723,-0.9707,-0.9686,-0.9645,-0.9645,-0.9636,-0.9633,-0.9621,-0.961,-0.9606,-0.9653,-0.9653,-0.9653,-0.9652,0,0,-1.0205,-1.0121,-1.0113,-1.0084,-1.0021,-0.9987,-0.9946,-0.9894,-0.987,-0.9826,-0.979,-0.9728,-0.9719,-0.9688,-0.9662,-0.9638,-0.9617,-0.9632,-0.963,-0.963,-0.9569,-0.9576,-0.9572,-0.9605,-0.9604,-0.9604,-0.9573,0,-1.018,-1.0106,-1.007,-1.0011,-0.9971,-0.9939,-0.9904,-0.9862,-0.9831,-0.9792,-0.9758,-0.9714,-0.9706,-0.9687,-0.9662,-0.9625,-0.9604,-0.9627,-0.9572,-0.957,-0.9585,-0.9566,-0.9572,-0.9546,-0.9569,-0.9568,-0.9568,0,-1.0141,-1.0096,-1.0034,-0.9975,-0.9957,-0.9926,-0.9875,-0.9838,-0.979,-0.9769,-0.9734,-0.9708,-0.9665,-0.9666,-0.9605,-0.9621,-0.9596,-0.9575,-0.9573,-0.9565,-0.9567,-0.9557,-0.9537,-0.9533,-0.9561,-0.9561,-0.9562,0,-1.0147,-1.0072,-1.0024,-1.0,-0.9931,-0.991,-0.9881,-0.9832,-0.9803,-0.9759,-0.9739,-0.9691,-0.9664,-0.9627,-0.9589,-0.9594,-0.9532,-0.953,-0.9513,-0.9514,-0.95,-0.9501,-0.9475,-0.9487,-0.9487,-0.9487,-0.9487,0,-1.0123,-1.0085,-1.0026,-0.9997,-0.9954,-0.9914,-0.9873,-0.9841,-0.9798,-0.9762,-0.9733,-0.97,-0.9652,-0.9614,-0.9584,-0.9538,-0.9526,-0.9508,-0.9501,-0.951,-0.9512,-0.9492,-0.9493,-0.9486,-0.9486,-0.9486,-0.9486,0,-1.0122,-1.0081,-1.0027,-0.9966,-0.995,-0.9921,-0.9869,-0.984,-0.9808,-0.9762,-0.975,-0.9699,-0.9652,-0.9611,-0.9549,-0.9529,-0.9481,-0.9473,-0.9497,-0.9493,-0.9478,-0.948,-0.9437,-0.9429,-0.9447,-0.9447,-0.9447,0,-1.0108,-1.0078,-1.0015,-0.9988,-0.9959,-0.9917,-0.9887,-0.9846,-0.9816,-0.9759,-0.9736,-0.9687,-0.9645,-0.9571,-0.9529,-0.9481,-0.9471,-0.9459,-0.9463,-0.9474,-0.9469,-0.9471,-0.9468,-0.9459,-0.9459,-0.9459,-0.9459,0,-1.0088,-1.0069,-1.0026,-0.9977,-0.9942,-0.9901,-0.9859,-0.984,-0.9791,-0.9759,-0.971,-0.9678,-0.9614,-0.9565,-0.9513,-0.9483,-0.9462,-0.9458,-0.9451,-0.946,-0.9475,-0.9466,-0.9496,-0.9459,-0.9459,-0.9459,-0.9459,-0.9459,-1.0079,-1.0051,-1.0002,-0.9955,-0.992,-0.9882,-0.9851,-0.9815,-0.9773,-0.9718,-0.9697,-0.9647,-0.96,-0.9527,-0.9497,-0.9458,-0.9454,-0.9445,-0.9442,-0.944,-0.9442,-0.9483,-0.9448,-0.9448,-0.9448,-0.9448,-0.9448,0,-1.0056,-1.0023,-0.9981,-0.9923,-0.9887,-0.9872,-0.9825,-0.9795,-0.9752,-0.9709,-0.9669,-0.9613,-0.9565,-0.952,-0.947,-0.9447,-0.9437,-0.9436,-0.9436,-0.943,-0.9448,-0.9458,-0.9445,-0.9445,-0.9445,-0.9445,-0.9445,-0.9445,-1.004,-0.9991,-0.9967,-0.9901,-0.9868,-0.9819,-0.9793,-0.9758,-0.9724,-0.9662,-0.9623,-0.9594,-0.955,-0.9497,-0.9453,-0.9441,-0.9424,-0.9425,-0.941,-0.9428,-0.9428,-0.9429,-0.9438,-0.9422,-0.9421,-0.9395,-0.9395,-0.9395]}]]